Mitchell, SD

4:59 AM CST on December 16, 2019 (GMT -0600)
Mitchell Municipal

Weather History for KMHE - August, 2019

Change the Weather History Date:

Thursday, August 22, 2019

  Actual Average Record
Temperature  
Mean Temperature 71 °F 71 °F  
Max Temperature 81 °F 83 °F 110 °F (1938)
Min Temperature 61 °F 60 °F 38 °F (1923)
Degree Days  
Heating Degree Days 0 0  
Month to date heating degree days 0 0  
Since 1 June heating degree days 16 40  
Since 1 July heating degree days 0 5  
Cooling Degree Days 6 7  
Month to date cooling degree days 187 177  
Year to date cooling degree days 767 695  
Since 1 June cooling degree days 748 655  
Growing Degree Days 20 (Base 50)    
Moisture  
Dew Point 60 °F    
Average Humidity 70    
Maximum Humidity 97    
Minimum Humidity 42    
Precipitation  
Precipitation 0.00 in 0.08 in 1.67 in (1954)
Month to date precipitation 2.13 1.75  
Year to date precipitation 23.05 15.72  
Snow  
Snow 0.00 in - 0.00 in ()
Month to date snowfall 0.0  
Since 1 June snowfall 0.0  
Since 1 July snowfall 0.0  
Snow Depth 0.00 in    
Sea Level Pressure  
Sea Level Pressure 30.04 in    
Wind  
Wind Speed 10 mph (SE)    
Max Wind Speed 17 mph    
Max Gust Speed 25 mph    
Visibility 7 miles    
Events Fog    
T = Trace of Precipitation, MM = Missing Value Source: NWS Daily Summary

Daily Weather History Graph

Daily Weather History Graph

Search for Another Location

Airport or City:

Astronomy

Aug. 22, 2019 Rise Set
Actual Time 6:44 AM CDT 8:25 PM CDT
Civil Twilight 6:13 AM CDT 8:55 PM CDT
Nautical Twilight 5:36 AM CDT 9:32 PM CDT
Astronomical Twilight 4:56 AM CDT 10:12 PM CDT
Moon No Moon Rise 1:34 PM CDT (8/22)
Length of Visible Light 14h 41m
Length of Day
13h 40m
Waning Gibbous, 59% of the Moon is Illuminated
Aug 22
Waning Gibbous
Aug 23
Last Quarter
Aug 30
New
Sep 5
First Quarter
Sep 13
Full

Hourly Weather History & Observations

Time (CDT) Temp. Heat Index Dew Point Humidity Pressure Visibility Wind Dir Wind Speed Gust Speed Precip Events Conditions
12:53 AM 62.1 °F - 55.0 °F 78% 30.06 in 10.0 mi SSE 4.6 mph - N/A   Clear
1:53 AM 62.1 °F - 57.9 °F 86% 30.04 in 10.0 mi SSE 6.9 mph - N/A   Clear
2:53 AM 64.0 °F - 61.0 °F 90% 30.03 in 10.0 mi South 8.1 mph - N/A   Clear
3:53 AM 64.0 °F - 61.0 °F 90% 30.02 in 10.0 mi SSE 6.9 mph - N/A   Clear
4:53 AM 63.0 °F - 61.0 °F 93% 30.02 in 9.0 mi SSE 5.8 mph - N/A   Clear
5:53 AM 61.0 °F - 59.0 °F 93% 30.04 in 4.0 mi East 5.8 mph - N/A   Partly Cloudy
6:00 AM 61.0 °F - 59.0 °F 93% 30.05 in 2.5 mi East 5.8 mph - N/A   Mostly Cloudy
6:11 AM 62.1 °F - 59.0 °F 90% 30.05 in 4.0 mi East 6.9 mph - N/A   Mostly Cloudy
6:53 AM 62.1 °F - 60.1 °F 93% 30.05 in 7.0 mi ESE 6.9 mph - N/A   Overcast
7:17 AM 62.1 °F - 60.1 °F 93% 30.06 in 1.5 mi ESE 8.1 mph - N/A   Overcast
7:24 AM 62.1 °F - 60.1 °F 93% 30.06 in 0.2 mi ESE 8.1 mph - N/A Fog Fog
7:53 AM 63.0 °F - 61.0 °F 93% 30.05 in 0.2 mi SE 9.2 mph - N/A Fog Fog
8:43 AM 64.0 °F - 62.1 °F 93% 30.05 in 0.5 mi ESE 8.1 mph - N/A Fog Fog
8:53 AM 64.0 °F - 62.1 °F 93% 30.05 in 0.2 mi SE 8.1 mph - N/A Fog Fog
9:08 AM 64.9 °F - 63.0 °F 93% 30.07 in 0.5 mi SSE 9.2 mph - N/A Fog Fog
9:30 AM 64.9 °F - 63.0 °F 93% 30.07 in 1.0 mi SE 9.2 mph - N/A   Overcast
9:46 AM 66.0 °F - 64.0 °F 93% 30.07 in 3.0 mi SSE 9.2 mph - N/A   Overcast
9:53 AM 66.9 °F - 63.0 °F 87% 30.06 in 7.0 mi SSE 12.7 mph - N/A   Overcast
10:07 AM 66.9 °F - 63.0 °F 87% 30.08 in 9.0 mi South 10.4 mph - N/A   Overcast
10:32 AM 70.0 °F - 62.1 °F 76% 30.07 in 9.0 mi SSE 11.5 mph - N/A   Mostly Cloudy
10:40 AM 70.0 °F - 62.1 °F 76% 30.07 in 10.0 mi SSE 11.5 mph - N/A   Scattered Clouds
10:53 AM 71.1 °F - 61.0 °F 70% 30.06 in 10.0 mi SSE 9.2 mph - N/A   Partly Cloudy
11:23 AM 73.0 °F - 61.0 °F 66% 30.08 in 10.0 mi SSE 10.4 mph - N/A   Mostly Cloudy
11:38 AM 73.9 °F - 60.1 °F 62% 30.07 in 10.0 mi South 10.4 mph - N/A   Scattered Clouds
11:48 AM 73.4 °F - 60.8 °F 65% 30.07 in 10.0 mi SE 8.1 mph - N/A   Partly Cloudy
11:53 AM 73.9 °F - 60.1 °F 62% 30.05 in 10.0 mi SE 9.2 mph - N/A   Partly Cloudy
12:53 PM 75.9 °F - 57.9 °F 54% 30.03 in 10.0 mi SE 9.2 mph - N/A   Clear
1:53 PM 78.1 °F - 55.9 °F 46% 30.01 in 10.0 mi SSE 11.5 mph - N/A   Clear
2:53 PM 80.1 °F 80.2 °F 55.9 °F 43% 30.00 in 10.0 mi SSE 10.4 mph - N/A   Clear
3:53 PM 80.1 °F 80.4 °F 57.0 °F 45% 29.98 in 10.0 mi SSE 12.7 mph - N/A   Clear
4:53 PM 80.1 °F 80.6 °F 57.9 °F 47% 29.98 in 10.0 mi SE 13.8 mph - N/A   Clear
5:53 PM 80.1 °F 80.6 °F 57.9 °F 47% 29.97 in 10.0 mi SE 15.0 mph - N/A   Clear
6:53 PM 75.9 °F - 57.9 °F 54% 29.98 in 10.0 mi SE 12.7 mph - N/A   Clear
7:53 PM 73.0 °F - 59.0 °F 61% 29.99 in 10.0 mi ESE 9.2 mph - N/A   Clear
8:53 PM 70.0 °F - 61.0 °F 73% 29.99 in 10.0 mi ESE 9.2 mph - N/A   Clear
9:53 PM 69.1 °F - 60.1 °F 73% 30.02 in 10.0 mi ESE 12.7 mph - N/A   Scattered Clouds
10:53 PM 69.1 °F - 59.0 °F 70% 30.03 in 10.0 mi SE 9.2 mph - N/A   Mostly Cloudy
11:53 PM 68.0 °F - 59.0 °F 73% 30.03 in 10.0 mi ESE 12.7 mph - N/A   Mostly Cloudy